Overview Statistics Trail Chart Weather Telemetry Raw packets
 

This is the latest recevied weather packets stored in our database for station/object W0WC. If no packets are shown the sender has not sent any weather packets the latest 10 day(s).

<< 90 91 92 93 94 95 96 >>
Time Temp. Humidity Pressure Rain* Wind** Luminosity Snow
1788023473 33.89° C 37% 1019.5 hPa 0 mm - 685 W/m² -
1788023168 33.89° C 37% 1019.7 hPa 0 mm - 677 W/m² -
1788022863 33.33° C 38% 1019.6 hPa 0 mm - 656 W/m² -
1788022559 33.33° C 39% 1019.8 hPa 0 mm - 650 W/m² -
1788022255 33.33° C 38% 1019.5 hPa 0 mm - 636 W/m² -
1788021953 33.89° C 38% 1019.8 hPa 0 mm - 601 W/m² -
1788021649 32.78° C 39% 1019.8 hPa 0 mm - 636 W/m² -
1788021346 32.78° C 40% 1019.8 hPa 0 mm - 639 W/m² -
1788021041 32.22° C 41% 1019.7 hPa 0 mm - 631 W/m² -
1788020737 32.22° C 40% 1019.8 hPa 0 mm - 616 W/m² -
1788020432 31.67° C 41% 1019.8 hPa 0 mm - 599 W/m² -
1788020127 32.22° C 41% 1019.8 hPa 0 mm - 582 W/m² -
1788019822 32.22° C 42% 1019.7 hPa 0 mm - 578 W/m² -
1788019522 31.67° C 43% 1019.9 hPa 0 mm - 559 W/m² -
1788019221 31.11° C 43% 1019.8 hPa 0 mm - 498 W/m² -
1788018920 31.11° C 44% 1020 hPa 0 mm - 444 W/m² -
1788018615 31.11° C 43% 1019.9 hPa 0 mm - 464 W/m² -
1788018314 31.11° C 44% 1020 hPa 0 mm - 475 W/m² -
1788018010 30.56° C 45% 1020 hPa 0 mm - 517 W/m² -
1788017706 30.56° C 45% 1020 hPa 0 mm - 476 W/m² -
1788017402 30° C 46% 1019.9 hPa 0 mm - 461 W/m² -
1788017099 30° C 46% 1019.9 hPa 0 mm - 443 W/m² -
1788016798 30° C 47% 1020 hPa 0 mm - 421 W/m² -
1788016496 29.44° C 47% 1019.9 hPa 0 mm - 444 W/m² -
1788016191 30° C 47% 1020.1 hPa 0 mm - 443 W/m² -

* Rain latest hour (hover to see other rain measurements)
** Current wind speed in m/s (hover to see current wind gust speed)